Back to catalog

STARLINK-5568

AliveCommunicationsVLEO
NORAD 55372·PAYLOAD·🇺🇸 United States

Launched Jan 26, 2023 from Cape Canaveral Space Force Station

Loading…

Next Passes (next 24 hours)

TLE

FreshSource: CelesTrak SupGP

Epoch: Sep 14, 2026, 14:47 UTC

1 55372C 23013AT  26257.61645833  .00045646  00000+0  16534-2 0  2571
2 55372  43.0018 331.4508 0001994 285.0212  75.7423 15.27553201    17

Track STARLINK-5568 in real time with AllMySat

Download on the App Store